Crestview, FL

7:12 PM CDT on September 20, 2017 (GMT -0500)
Sikes

Weather History for KCEW - January, 2014

Change the Weather History Date:

Tuesday, January 14, 2014

  Actual Average Record
Temperature  
Mean Temperature 51 °F -  
Max Temperature 66 °F 59 °F 78 °F (1952)
Min Temperature 35 °F 33 °F 16 °F (2011)
Degree Days  
Heating Degree Days 14    
Growing Degree Days 1 (Base 50)    
Moisture  
Dew Point 45 °F    
Average Humidity 74    
Maximum Humidity 96    
Minimum Humidity 25    
Precipitation  
Precipitation 0.01 in - - ()
Sea Level Pressure  
Sea Level Pressure 29.98 in    
Wind  
Wind Speed 5 mph (NW)    
Max Wind Speed 16 mph    
Max Gust Speed 22 mph    
Visibility 8 miles    
Events Fog , Rain    
Averages and records for this station are not official NWS values.
T = Trace of Precipitation, MM = Missing Value Source: NWS Daily Summary

Daily Weather History Graph

Daily Weather History Graph

Search for Another Location

Airport or City:

Trip Planner

Search our weather history database for the weather conditions in past years. The results will help you decide how hot, cold, wet, or windy it might be!

Date:

Astronomy

Jan. 14, 2014 Rise Set
Actual Time 6:44 AM CST 5:06 PM CST
Civil Twilight 6:18 AM CST 5:32 PM CST
Nautical Twilight 5:48 AM CST 6:01 PM CST
Astronomical Twilight 5:19 AM CST 6:30 PM CST
Moon 4:08 PM CST (1/14) 5:20 AM CST (1/14)
Length of Visible Light 11h 13m
Length of Day
10h 21m
Waxing Gibbous, 98% of the Moon is Illuminated
Jan 14
Waxing Gibbous
Jan 15
Full
Jan 23
Last Quarter
Jan 30
New
Feb 6
First Quarter

Hourly Weather History & Observations

Time (CST) Temp. Dew Point Humidity Pressure Visibility Wind Dir Wind Speed Gust Speed Precip Events Conditions
12:14 AM 60.1 °F 59.0 °F 96% 29.87 in 0.8 mi Calm Calm - 0.00 in Rain Light Rain
12:31 AM 60.1 °F 59.0 °F 96% 29.87 in 0.5 mi Calm Calm - 0.00 in Fog Fog
12:53 AM 60.1 °F 57.9 °F 93% 29.86 in 0.8 mi WNW 4.6 mph - 0.01 in Rain Rain
12:57 AM 60.1 °F 59.0 °F 96% 29.87 in 2.0 mi NW 3.5 mph - 0.00 in Rain Light Rain
1:04 AM 60.1 °F 59.0 °F 96% 29.87 in 6.0 mi Calm Calm - 0.00 in Rain Light Rain
1:15 AM 60.1 °F 59.0 °F 96% 29.87 in 4.0 mi Calm Calm - 0.00 in Rain Rain
1:44 AM 60.1 °F 59.0 °F 96% 29.87 in 10.0 mi West 6.9 mph - 0.00 in   Overcast
1:53 AM 60.1 °F 59.0 °F 96% 29.87 in 10.0 mi West 8.1 mph - 0.00 in Rain Light Rain
2:26 AM 60.1 °F 59.0 °F 96% 29.88 in 10.0 mi West 10.4 mph - 0.00 in   Overcast
2:53 AM 60.1 °F 59.0 °F 96% 29.89 in 10.0 mi WNW 8.1 mph - 0.00 in   Overcast
3:53 AM 59.0 °F 55.9 °F 90% 29.90 in 10.0 mi NW 16.1 mph 21.9 mph N/A   Mostly Cloudy
4:53 AM 54.0 °F 46.9 °F 77% 29.95 in 10.0 mi NW 11.5 mph - N/A   Clear
5:53 AM 52.0 °F 46.0 °F 80% 29.98 in 10.0 mi NW 9.2 mph - N/A   Clear
6:53 AM 50.0 °F 46.0 °F 86% 30.00 in 10.0 mi NNW 8.1 mph - N/A   Clear
7:53 AM 52.0 °F 46.0 °F 80% 30.03 in 10.0 mi NNW 11.5 mph - N/A   Clear
8:53 AM 55.9 °F 44.1 °F 64% 30.06 in 10.0 mi NNW 9.2 mph - N/A   Clear
9:53 AM 60.1 °F 41.0 °F 49% 30.06 in 10.0 mi North 8.1 mph - N/A   Clear
10:53 AM 62.1 °F 37.9 °F 41% 30.06 in 10.0 mi NW 11.5 mph - N/A   Clear
11:53 AM 64.0 °F 34.0 °F 33% 30.03 in 10.0 mi NNE 11.5 mph 16.1 mph N/A   Clear
12:53 PM 64.9 °F 30.9 °F 28% 30.01 in 10.0 mi NNW 9.2 mph - N/A   Clear
1:53 PM 64.9 °F 30.0 °F 27% 30.01 in 10.0 mi WNW 8.1 mph - N/A   Clear
2:53 PM 66.0 °F 28.9 °F 25% 30.02 in 10.0 mi NNW 9.2 mph - N/A   Clear
3:53 PM 64.9 °F 30.0 °F 27% 30.03 in 10.0 mi West 8.1 mph - N/A   Clear
4:53 PM 60.1 °F 30.9 °F 33% 30.04 in 10.0 mi WNW 4.6 mph - N/A   Clear
5:53 PM 50.0 °F 39.0 °F 66% 30.05 in 10.0 mi Calm Calm - N/A   Clear
6:53 PM 48.0 °F 37.0 °F 66% 30.07 in 10.0 mi WNW 3.5 mph - N/A   Clear
7:53 PM 42.1 °F 36.0 °F 79% 30.08 in 10.0 mi Calm Calm - N/A   Clear
8:53 PM 39.0 °F 37.0 °F 93% 30.09 in 10.0 mi Calm Calm - N/A   Clear
9:53 PM 37.0 °F 35.1 °F 93% 30.09 in 10.0 mi Calm Calm - N/A   Clear
10:53 PM 36.0 °F 34.0 °F 93% 30.08 in 10.0 mi Calm Calm - N/A   Clear
11:53 PM 35.1 °F 33.1 °F 92% 30.06 in 10.0 mi Calm Calm - N/A   Clear